Nassau, Bahamas

9:25 PM EDT on July 25, 2017 (GMT -0400)
Nassau

Weather History for 78073 - August, 2012

Change the Weather History Date:

Friday, August 10, 2012

  Actual Average Record
Temperature  
Mean Temperature 78 °F -  
Max Temperature 84 °F 89 °F - ()
Min Temperature 72 °F 75 °F - ()
Cooling Degree Days 13    
Growing Degree Days 28 (Base 50)    
Moisture  
Dew Point 75 °F    
Average Humidity 81    
Maximum Humidity 94    
Minimum Humidity 67    
Precipitation  
Precipitation 0.63 in 0.26 in - ()
Sea Level Pressure  
Sea Level Pressure 30.01 in    
Wind  
Wind Speed 6 mph ()    
Max Wind Speed 18 mph    
Max Gust Speed -    
Visibility 6.5 miles    
Events Rain , Thunderstorm    
T = Trace of Precipitation, MM = Missing Value Source: Averaged Metar Reports

Daily Weather History Graph

Daily Weather History Graph

Search for Another Location

Airport or City:

Trip Planner

Search our weather history database for the weather conditions in past years. The results will help you decide how hot, cold, wet, or windy it might be!

Date:

Astronomy

Aug. 10, 2012 Rise Set
Actual Time 6:41 AM EDT 7:48 PM EDT
Civil Twilight 6:17 AM EDT 8:12 PM EDT
Nautical Twilight 5:49 AM EDT 8:40 PM EDT
Astronomical Twilight 5:19 AM EDT 9:09 PM EDT
Moon 12:35 AM EDT (8/10) 2:17 PM EDT (8/10)
Length of Visible Light 13h 54m
Length of Day
13h 06m
Last Quarter, 42% of the Moon is Illuminated
Aug 10
Last Quarter
Aug 17
New
Aug 24
First Quarter
Aug 31
Full
Sep 8
Last Quarter

Hourly Weather History & Observations

Time (EDT) Temp. Heat Index Dew Point Humidity Pressure Visibility Wind Dir Wind Speed Gust Speed Precip Events Conditions
12:00 AM 82.4 °F 90.9 °F 77.0 °F 84% 30.02 in 6.2 mi ESE 11.5 mph - N/A   Mostly Cloudy
2:00 AM 82 °F - 73 °F 67% 30.00 in 9 mi ESE 9.2 mph - -   Partly Cloudy
2:00 AM 82.4 °F 88.2 °F 73.4 °F 74% 30.00 in 6.2 mi ESE 9.2 mph - N/A   Mostly Cloudy
3:00 AM 82.4 °F 90.9 °F 77.0 °F 84% 29.98 in 6.2 mi ESE 5.8 mph - N/A   Mostly Cloudy
4:00 AM 80.6 °F 87.1 °F 77.0 °F 89% 29.97 in 6.2 mi SE 5.8 mph - N/A   Mostly Cloudy
4:05 AM 80.6 °F 87.1 °F 77.0 °F 89% 30.00 in 6.2 mi North - - N/A Thunderstorm Light Thunderstorm
4:10 AM 78.8 °F - 75.2 °F 89% 30.01 in - ESE 18.4 mph - N/A Rain , Thunderstorm Thunderstorms and Rain
5:00 AM 76 °F - 73 °F 86% 30.01 in 6 mi ESE 3.5 mph - - Rain , Thunderstorm Thunderstorms and Rain
5:00 AM 77.0 °F - 73.4 °F 89% 30.01 in 5.6 mi ESE 3.5 mph - N/A Rain , Thunderstorm Light Thunderstorms and Rain
6:00 AM 75.2 °F - 73.4 °F 94% 29.99 in 6.2 mi Calm Calm - N/A   Mostly Cloudy
7:00 AM 75.2 °F - 73.4 °F 94% 30.01 in 3.7 mi ESE 3.5 mph - N/A Rain Light Rain Showers
8:00 AM 76 °F - 75 °F 94% 29.99 in 8 mi East 2.3 mph - - Rain Light Rain Showers
8:00 AM - - - N/A% - - East 2.3 mph - N/A   Unknown
9:00 AM 78.8 °F - 73.4 °F 83% 29.99 in 6.2 mi ENE 6.9 mph - N/A   Mostly Cloudy
10:00 AM 80.6 °F 85.4 °F 73.4 °F 79% 30.02 in 6.2 mi East 4.6 mph - N/A   Mostly Cloudy
11:00 AM 82 °F - 73 °F 68% 30.04 in 8 mi ESE 5.8 mph - -   Mostly Cloudy
11:00 AM 82.4 °F 88.2 °F 73.4 °F 74% 30.04 in 6.2 mi ESE 5.8 mph - N/A   Mostly Cloudy
12:00 PM 80.6 °F 86.2 °F 75.2 °F 84% 30.05 in 6.2 mi ESE 13.8 mph - N/A Rain Light Rain
1:00 PM 77.0 °F - 73.4 °F 89% 30.02 in 6.2 mi ESE 3.5 mph - N/A Rain Light Rain
2:00 PM 82 °F - 75 °F 74% 30.00 in 8 mi East 3.5 mph - - Rain Light Rain
2:00 PM 82.4 °F 90.9 °F 77.0 °F 84% 29.99 in 6.2 mi East 3.5 mph - N/A   Overcast
3:00 PM 82.4 °F 88.2 °F 73.4 °F 74% 30.01 in 6.2 mi East 6.9 mph - N/A   Overcast
4:00 PM 82.4 °F 88.2 °F 73.4 °F 74% 30.00 in 6.2 mi East 5.8 mph - N/A   Mostly Cloudy
5:00 PM 84 °F - 76 °F 71% 30.01 in 8 mi East 9.2 mph - -   Mostly Cloudy
5:00 PM 84.2 °F 92.3 °F 75.2 °F 74% 30.01 in 6.2 mi East 9.2 mph - N/A   Mostly Cloudy
6:00 PM 84.2 °F 92.3 °F 75.2 °F 74% 29.99 in 6.2 mi ESE 9.2 mph - N/A   Mostly Cloudy
7:00 PM 80.6 °F 85.4 °F 73.4 °F 79% 29.99 in 6.2 mi East 6.9 mph - N/A   Mostly Cloudy
8:00 PM 82 °F - 75 °F 73% 30.00 in 8 mi ESE 3.5 mph - -   Mostly Cloudy
8:00 PM 82.4 °F 89.5 °F 75.2 °F 79% 30.00 in 6.2 mi ESE 3.5 mph - N/A   Mostly Cloudy
9:00 PM 80.6 °F 85.4 °F 73.4 °F 79% 30.01 in 5.6 mi ESE 3.5 mph - N/A Rain Light Rain
10:00 PM 80.6 °F 86.2 °F 75.2 °F 84% 30.01 in 5.6 mi ESE 3.5 mph - N/A Rain Light Rain
11:00 PM 80 °F - 76 °F 84% 30.01 in 8 mi East 3.5 mph - - Rain Light Rain
11:00 PM 80.6 °F 87.1 °F 77.0 °F 89% 30.01 in 6.2 mi East 3.5 mph - N/A   Mostly Cloudy